Regional Weather Roundup
Issued by NWS Raleigh/Durham, NC

Home | Current Version | Previous Version | Text Only | Print | Product List | Glossary On
Versions: 1 2 3 4 5 6 7 8 9 10 11 12 13 14 15 16 17 18 19 20 21 22 23 24 25 26 27 28 29 30 31 32 33 34 35 36 37 38 39 40 41 42 43 44 45 46 47 48 49 50
000
ASUS42 KRAH 281310
RWRRAH
NORTH CAROLINA WEATHER ROUNDUP
NATIONAL WEATHER SERVICE RALEIGH NC
900 AM EDT FRI AUG 28 2015

NOTE: "FAIR" INDICATES FEW OR NO CLOUDS BELOW 12,000 FEET WITH NO
SIGNIFICANT WEATHER AND/OR OBSTRUCTIONS TO VISIBILITY.

NCZ001-053-055-056-065-067-281400-
WESTERN NORTH CAROLINA

CITY           SKY/WX    TMP DP  RH WIND       PRES   REMARKS
ASHEVILLE      SUNNY     63  58  83 CALM      30.25R
JEFFERSON      MOSUNNY   63  55  75 CALM      30.29R
MORGANTON      SUNNY     67  63  85 CALM      30.27R
HICKORY        SUNNY     69  61  75 CALM      30.21R
RUTHERFORDTON  SUNNY     69  63  79 NE3       30.22R
MOUNT AIRY     MOSUNNY   71  65  81 CALM      30.24R
BOONE          SUNNY     62  57  82 CALM      30.29R
$$

NCZ021-022-025-041-071-084-088-281400-
CENTRAL NORTH CAROLINA

CITY           SKY/WX    TMP DP  RH WIND       PRES   REMARKS
CHARLOTTE      MOSUNNY   70  61  73 N5        30.20R
GREENSBORO     MOSUNNY   69  62  78 NE5       30.21R
WINSTON-SALEM  SUNNY     70  61  73 NE3       30.22R
RALEIGH-DURHAM MOSUNNY   70  62  76 NE3       30.19R
FORT BRAGG     SUNNY     72  62  70 NE10      30.15R
FAYETTEVILLE   SUNNY     70  62  76 NE6       30.15R
BURLINGTON     SUNNY     70  62  76 N6        30.20R
LAURINBURG     SUNNY     70  62  76 NE9       30.16R
$$

NCZ011-015-027-028-043-044-047-080-103-281400-
NORTHEASTERN NORTH CAROLINA

CITY           SKY/WX    TMP DP  RH WIND       PRES   REMARKS
ROCKY MT-WILSO SUNNY     72  62  71 NE8       30.17R
GREENVILLE     SUNNY     68  64  88 N6        30.17R
WASHINGTON     SUNNY     70  64  82 N6        30.15R
ELIZABETH CITY MOSUNNY   74  65  73 N8        30.15R
MANTEO         MOSUNNY   76  63  62 NE14      30.13R
CAPE HATTERAS  MOSUNNY   77  65  66 NE8       30.11R
$$

NCZ078-087-090-091-093-098-101-281400-
SOUTHEASTERN NORTH CAROLINA

CITY           SKY/WX    TMP DP  RH WIND       PRES   REMARKS
LUMBERTON      MOSUNNY   73  64  73 NE8       30.14R
GOLDSBORO      SUNNY     70  64  79 NE9       30.15R
KINSTON        SUNNY     70  64  83 N6        30.16R
KENANSVILLE      N/A     69  63  81 CALM      30.16R
NEW BERN       SUNNY     74  65  73 N7        30.14S
CHERRY POINT   SUNNY     78  66  66 NE14      30.13R
BEAUFORT       MOSUNNY   77  70  79 NE8       30.11R
JACKSONVILLE   SUNNY     75  64  68 NE10      30.12R
WILMINGTON     MOSUNNY   74  66  76 NE12      30.11R
$$



USA.gov is the U.S. government's official web portal to all federal, state and local government web resources and services.